FW6724 Weather Reports


Display with metric or nautical units.
time (UTC)temp
F
wind
direction
speed
MPH
gust
MPH
rain 1hr
in
rain 24hr
in
rain mn
in
humidity
%
barometer
mb
20210616164537 79 79 5.0 15.0 0.00 0.00 0.00 56 1011.1
20210616163036 80 142 7.0 14.0 0.00 0.00 0.00 55 1011.4
20210616161535 80 137 5.0 14.0 0.00 0.00 0.00 57 1011.7
20210616160052 80 164 7.0 18.0 0.00 0.00 0.00 56 1011.3
20210616154552 81 117 8.0 16.0 0.00 0.00 0.00 52 1011.4
20210616153029 82 120 9.0 19.0 0.00 0.00 0.00 51 1011.5
20210616151547 83 121 9.0 16.0 0.00 0.00 0.00 49 1011.7
20210616150022 83 148 7.0 13.0 0.00 0.00 0.00 47 1011.4
20210616144557 83 130 8.0 15.0 0.00 0.00 0.00 45 1011.4
20210616143047 83 178 8.0 18.0 0.00 0.00 0.00 45 1011.6
20210616141525 84 182 6.0 16.0 0.00 0.00 0.00 42 1011.5
20210616140051 86 144 7.0 16.0 0.00 0.00 0.00 38 1011.4
20210616134525 87 142 7.0 15.0 0.00 0.00 0.00 35 1011.4
20210616133041 87 137 6.0 14.0 0.00 0.00 0.00 35 1011.0
20210616131556 86 126 5.0 15.0 0.00 0.00 0.00 36 1011.0
20210616130039 86 107 10.0 17.0 0.00 0.00 0.00 39 1011.0
20210616124547 86 111 6.0 13.0 0.00 0.00 0.00 38 1010.5
20210616123030 87 92 6.0 12.0 0.00 0.00 0.00 37 1010.7
20210616121559 86 76 4.0 13.0 0.00 0.00 0.00 38 1010.7
20210616120057 86 63 3.0 9.0 0.00 0.00 0.00 35 1011.0
20210616114548 84 344 3.0 9.0 0.00 0.00 0.00 38 1011.3
20210616113022 84 0 2.0 12.0 0.00 0.00 0.00 39 1011.2
20210616111544 83 109 4.0 11.0 0.00 0.00 0.00 39 1011.4
20210616110037 83 91 6.0 14.0 0.00 0.00 0.00 41 1010.6
20210616104525 83 85 0.0 3.0 0.00 0.00 0.00 42 1012.2
20210616103121 83 230 1.0 7.0 0.00 0.00 0.00 40 1012.4
20210616101523 83 314 1.0 4.0 0.00 0.00 0.00 40 1012.7
20210616100035 81 259 2.0 7.0 0.00 0.00 0.00 41 1013.0
20210616094523 81 256 1.0 6.0 0.00 0.00 0.00 42 1013.1
20210616093042 80 294 2.0 11.0 0.00 0.00 0.00 42 1013.4
20210616091608 80 245 7.0 15.0 0.00 0.00 0.00 43 1014.3
20210616090105 80 234 9.0 19.0 0.00 0.00 0.00 44 1014.7
20210616084530 80 254 4.0 9.0 0.00 0.00 0.00 45 1013.6
20210616083037 81 285 3.0 7.0 0.00 0.00 0.00 45 1013.4
20210616081650 80 327 1.0 3.0 0.00 0.00 0.00 45 1013.0
20210616080034 80 0 0.0 3.0 0.00 0.00 0.00 45 1013.2
20210616074542 80 352 2.0 3.0 0.00 0.00 0.00 45 1013.0
20210616073034 80 352 2.0 3.0 0.00 0.00 0.00 45 1012.6
20210616071634 79 265 0.0 3.0 0.00 0.00 0.00 47 1012.8
20210616070047 78 265 1.0 4.0 0.00 0.00 0.00 50 1012.5
20210616064522 76 274 2.0 3.0 0.00 0.00 0.00 52 1012.3
20210616063056 76 0 0.0 3.0 0.00 0.00 0.00 52 1012.3
20210616061555 74 0 0.0 2.0 0.00 0.00 0.00 53 1012.4
20210616060029 73 0 0.0 3.0 0.00 0.00 0.00 55 1012.7
20210616054548 73 264 0.0 2.0 0.00 0.00 0.00 53 1012.7
20210616053119 73 0 1.0 3.0 0.00 0.00 0.00 54 1012.5
20210616051547 72 269 3.0 6.0 0.00 0.00 0.00 54 1012.3
20210616050034 72 298 2.0 4.0 0.00 0.00 0.00 56 1012.4
20210616044544 73 315 1.0 3.0 0.00 0.00 0.00 54 1012.3
20210616043051 72 268 1.0 4.0 0.00 0.00 0.00 55 1012.4
20210616041530 72 302 1.0 4.0 0.00 0.00 0.00 55 1012.4
20210616040211 74 297 1.0 5.0 0.00 0.00 0.00 52 1012.4
20210616034541 75 279 3.0 7.0 0.00 0.00 0.00 50 1012.7
20210616033037 75 294 3.0 8.0 0.00 0.00 0.00 50 1012.8
20210616031522 75 288 4.0 7.0 0.00 0.00 0.00 50 1013.0
20210616030022 75 304 4.0 8.0 0.00 0.00 0.00 51 1013.0
20210616024553 74 286 4.0 9.0 0.00 0.00 0.00 53 1013.1
20210616023126 74 294 3.0 7.0 0.00 0.00 0.00 54 1013.2
20210616021530 74 311 2.0 7.0 0.00 0.00 0.00 53 1013.2
20210616020033 77 296 4.0 9.0 0.00 0.00 0.00 49 1013.4
20210616014529 77 227 3.0 5.0 0.00 0.00 0.00 46 1013.1
20210616013042 74 118 3.0 9.0 0.00 0.00 0.00 56 1012.2
20210616011544 75 61 3.0 4.0 0.00 0.00 0.00 52 1013.0
20210616010028 76 315 2.0 4.0 0.00 0.00 0.00 50 1014.1
20210616004523 76 265 1.0 3.0 0.00 0.00 0.00 51 1014.5
20210616003028 76 291 3.0 6.0 0.00 0.00 0.00 51 1014.4
20210616001538 76 304 1.0 3.0 0.00 0.00 0.00 51 1014.6
20210616000057 76 294 1.0 4.0 0.00 0.00 0.00 51 1014.5
20210615234549 76 302 1.0 3.0 0.00 0.00 0.00 51 1014.6
20210615233032 77 284 1.0 4.0 0.00 0.00 0.00 49 1015.1
20210615231540 77 285 2.0 3.0 0.00 0.00 0.00 48 1015.2
20210615230025 77 275 2.0 4.0 0.00 0.00 0.00 49 1015.3
20210615224530 77 288 3.0 6.0 0.00 0.00 0.00 48 1015.5
20210615223118 79 0 0.0 2.0 0.00 0.00 0.00 45 1015.3
20210615221618 79 144 0.0 4.0 0.00 0.00 0.00 46 1015.1
20210615220052 79 0 0.0 4.0 0.00 0.00 0.00 45 1015.2
20210615214601 79 0 0.0 2.0 0.00 0.00 0.00 45 1015.5
20210615213047 79 0 1.0 3.0 0.00 0.00 0.00 45 1015.6
20210615211530 79 0 0.0 2.0 0.00 0.00 0.00 46 1015.7
20210615210034 79 146 0.0 3.0 0.00 0.00 0.00 46 1015.9
20210615204524 79 116 2.0 6.0 0.00 0.00 0.00 44 1015.8
20210615203038 80 0 1.0 7.0 0.00 0.00 0.00 42 1015.7
20210615201539 80 128 1.0 4.0 0.00 0.00 0.00 41 1015.8
20210615200049 80 136 2.0 5.0 0.00 0.00 0.00 40 1015.5
20210615194522 81 124 2.0 5.0 0.00 0.00 0.00 39 1015.4
20210615193059 81 80 1.0 7.0 0.00 0.00 0.00 39 1015.2
20210615191531 82 126 1.0 8.0 0.00 0.00 0.00 38 1015.2
20210615190103 82 70 3.0 10.0 0.00 0.00 0.00 37 1015.3
20210615184614 83 100 5.0 10.0 0.00 0.00 0.00 37 1015.4
20210615183051 84 78 3.0 9.0 0.00 0.00 0.00 37 1015.3
20210615181619 84 99 5.0 13.0 0.00 0.00 0.00 36 1015.2
20210615180046 84 127 6.0 11.0 0.00 0.00 0.00 36 1015.1
20210615174534 84 49 8.0 17.0 0.00 0.00 0.00 36 1015.0
20210615173021 84 61 8.0 16.0 0.00 0.00 0.00 35 1014.8
20210615171541 86 105 7.0 14.0 0.00 0.00 0.00 34 1015.1
20210615170028 86 38 8.0 15.0 0.00 0.00 0.00 33 1015.4